Location: Solon
(41.3849°N, 81.4081°W)
Time: 00:43:36
(UTC-04:00)

Daily predictions for brighter satellites

Satellite Brightness Start Highest point End
(mag) Time Altitude Azimuth Time Altitude Azimuth Time Altitude Azimuth
Terra 3.9 00:06:58 24° NW 00:06:58 24° NW 00:09:10 10° NNW
Cosmos 2263 Rocket 3.9 00:20:47 10° NW 00:23:33 27° NW 00:23:33 27° NW
H-2A R/B 4.4 00:29:29 16° WNW 00:29:29 16° WNW 00:31:09 10° NW
Cosmos 2322 Rocket 4.0 00:29:50 25° WNW 00:30:04 25° NW 00:34:40 10° N
ATLAS CENTAUR R/B 4.2 00:55:09 78° SW 00:56:09 88° NW 01:21:27 10° NE
ATLAS 3B R/B 4.2 01:08:52 30° ENE 01:08:52 30° ENE 01:12:34 10° NE
Cosmos 2278 Rocket 4.0 01:06:33 10° NNW 01:09:22 28° N 01:09:22 28° N
CZ-2C R/B 4.4 01:35:35 10° NNE 01:38:09 29° NNE 01:38:09 29° NNE
Cosmos 2360 Rocket 4.4 01:43:12 18° NW 01:43:12 18° NW 01:46:31 10° N
Cosmos 2219 Rocket 3.9 02:05:32 28° N 02:05:32 28° N 02:08:23 10° NNE
SL-16 R/B 3.8 02:19:06 31° NE 02:19:06 31° NE 02:21:58 10° NNE
COSMOS 2455 4.1 02:19:04 36° N 02:19:04 36° N 02:22:49 10° NNE
Cosmos 2333 Rocket 3.8 02:21:46 31° N 02:21:46 31° N 02:25:03 10° NNE
Cosmos 2237 Rocket 3.8 02:23:22 31° N 02:23:22 31° N 02:26:31 10° NNE
BREEZE-M DEB (TANK) 4.4 02:40:47 56° E 02:40:47 56° E 02:44:28 10° ENE
ATLAS 3B R/B 3.6 02:56:06 44° NW 02:56:19 44° NW 03:03:21 10° NNE
CZ-3A R/B 4.2 03:21:47 33° WNW 03:23:30 37° NW 03:27:44 10° NE
CZ-2D R/B 3.7 03:19:14 10° NE 03:23:36 26° E 03:23:57 26° E
Cosmos 1943 4.0 03:29:24 43° E 03:29:24 43° E 03:34:19 10° NE
CZ-4C R/B 2.9 03:33:52 46° NNW 03:33:52 46° NNW 03:39:01 10° NNE
Cosmos 2369 Rocket 2.8 03:34:22 10° NNW 03:39:53 53° ENE 03:41:29 40° ESE
ADEOS 3.9 03:34:46 10° NNE 03:39:14 61° NE 03:39:14 61° NE
ARIANE 5 R/B 3.2 03:35:27 10° NNE 03:40:23 47° E 03:40:23 47° E
NPP 4.2 03:36:39 10° N 03:40:49 49° NNW 03:40:49 49° NNW
USA 234 3.2 03:40:55 10° NE 03:47:27 67° SE 03:47:57 64° SSE
S3M 4.1 03:49:07 64° WNW 03:49:07 64° WNW 03:54:58 10° N
ATLAS CENTAUR R/B 3.7 03:44:52 10° NNW 03:46:10 18° NNW 03:46:10 18° NNW
Cosmos 1455 4.3 03:51:10 23° E 03:51:10 23° E 03:54:05 10° NE
SL-16 R/B 2.7 03:52:07 42° SE 03:54:16 70° ENE 04:00:26 10° N
Resurs 1-4 Rocket 2.5 03:52:57 10° NNE 03:58:08 55° E 03:58:41 52° SE
Cosmos 2242 Rocket 4.3 03:59:17 52° E 03:59:17 52° E 04:03:29 10° NNE
SL-16 R/B 3.9 04:00:59 20° NW 04:00:59 20° NW 04:05:05 10° N
Cosmos 1943 Rocket 3.6 03:57:36 10° N 04:02:49 36° ENE 04:07:59 10° SE
NOSS 3-2 (A) 3.6 04:04:36 57° WNW 04:05:12 59° NW 04:11:48 10° NNE
Cosmos 1553 Rocket 4.4 04:08:42 45° WNW 04:08:42 45° WNW 04:14:14 10° N
Cosmos 1386 Rocket 4.3 04:02:17 10° NNW 04:08:35 73° W 04:09:06 68° SW
Cosmos 1745 Rocket 4.3 04:06:23 10° NNW 04:12:10 49° W 04:12:10 49° W
Cosmos 2263 4.4 04:08:07 10° NNW 04:13:55 73° ENE 04:19:41 10° SSE
Cosmos 1709 Rocket 4.0 04:07:57 10° N 04:14:20 78° E 04:17:25 33° SSE
Cosmos 2251 Rocket 3.6 04:15:49 62° WNW 04:15:49 62° WNW 04:20:54 10° NNE
NOSS 3-3 (A) 4.4 04:08:26 10° NW 04:15:50 64° WSW 04:23:40 10° SSE
NOSS 3-3 (C) 4.4 04:08:32 10° NW 04:15:56 64° WSW 04:23:46 10° SSE
ERS-2 3.6 04:15:49 10° N 04:17:59 32° N 04:17:59 32° N
CENTAUR R/B 3.4 04:19:17 29° SSE 04:21:44 42° ESE 04:27:58 10° NE
NOSS 3-2 (C) 3.7 04:20:58 49° W 04:22:09 57° NW 04:28:47 10° NNE
Meteor 1-27 4.3 04:26:20 53° W 04:26:33 54° WNW 04:32:01 10° N
UNK 3.8 04:28:05 60° WNW 04:28:05 60° WNW 04:32:08 10° NNW
SL-27 R/B 4.4 04:26:50 23° ESE 04:27:36 24° E 04:30:38 10° NE
Cosmos 1733 Rocket 3.3 04:26:15 10° N 04:30:38 65° E 04:32:11 38° SSE
Abrixas rocket 4.3 04:31:10 23° N 04:31:35 23° N 04:34:21 10° ENE
ARGOS Delta rocket 4.4 04:29:19 10° NNE 04:33:36 49° E 04:35:21 31° SSE
ATLAS 5 CENTAUR R/B 1.8 04:33:28 61° SSW 04:34:17 79° ESE 04:39:30 10° NE
EO 1 Del DPAF 3.3 04:43:01 62° NW 04:43:01 62° NW 04:46:28 10° NNW
UNKNOWN OBJECT B 2.6 04:40:44 10° N 04:44:16 71° NW 04:44:16 71° NW
MTI 4.0 04:45:27 70° N 04:45:27 70° N 04:48:30 10° N
PSLV R/B 3.4 04:47:17 69° E 04:47:17 69° E 04:50:21 10° E
Iridium 2 4.5 04:43:26 10° NNW 04:46:11 39° NW 04:46:11 39° NW
Meteor 2-10 4.2 04:45:56 45° SW 04:47:15 57° WNW 04:52:36 10° N
Cosmos 1869 3.1 04:50:13 62° SSW 04:50:51 84° W 04:54:51 10° N
Cosmos 1892 3.9 04:52:09 10° NNW 04:54:28 28° NW 04:54:28 28° NW
CZ-4B R/B 3.8 04:53:22 10° NNE 04:56:52 41° E 04:59:29 16° SSE
Cosmos 1933 4.1 04:55:34 19° SSE 04:58:19 53° E 05:02:20 10° NNE
Cosmos 1908 Rocket 4.1 04:55:01 10° N 04:59:21 59° E 05:03:38 10° SSE
BREEZE-M DEB (TANK) 4.4 04:59:14 22° SE 04:59:42 23° SE 05:02:43 10° ENE
Okean O Rocket 1.7 04:56:59 10° NNE 05:01:27 77° ESE 05:04:08 24° S
CZ-2D R/B 3.5 04:57:22 10° N 05:01:44 64° WNW 05:03:05 41° SW
CZ-2D R/B 2.7 04:58:55 10° N 05:03:47 39° WNW 05:05:16 32° WSW
Cosmos 1302 Rocket 4.3 05:00:54 10° NNW 05:05:48 41° WSW 05:07:50 29° SSW
Atlas Centaur 2 3.9 05:07:43 10° S 05:09:02 11° SSE 05:10:25 10° SE
Cosmos 2315 Rocket 4.4 05:07:44 29° SW 05:10:17 42° WNW 05:16:13 10° N
Cosmos 2285 Rocket 4.2 05:04:19 10° NNW 05:10:47 77° ENE 05:17:09 10° SSE
Cosmos 1943 4.3 05:11:14 23° W 05:13:11 29° NW 05:18:04 10° N
COSMOS 2406 3.4 05:08:58 18° SSW 05:13:20 75° ESE 05:19:06 10° NNE
Sich 1 Rocket 3.4 05:12:28 10° NNW 05:16:51 71° W 05:21:13 10° S
Cosmos 1703 Rocket 3.9 05:12:39 10° S 05:17:04 69° E 05:21:33 10° NNE
Cosmos 389 Rocket 2.7 05:17:29 40° WSW 05:18:13 47° WNW 05:21:37 10° N
ARIANE 5 R/B 3.9 05:15:19 10° NNW 05:19:18 22° WNW 05:20:44 20° W
Cosmos 1184 Rocket 3.7 05:19:44 10° NNW 05:22:41 31° W 05:22:41 31° W
CZ-4C R/B 4.4 05:20:21 10° NW 05:23:23 14° NNW 05:26:38 10° N
Cosmos 2369 Rocket 3.4 05:19:20 10° NW 05:23:07 21° W 05:23:07 21° W
CZ-4B DEB 4.2 05:20:55 10° NNE 05:26:26 88° WNW 05:31:53 10° SSW
Cosmos 1455 3.5 05:26:13 22° W 05:26:34 22° WNW 05:29:42 10° NNW
SeaSat 1 2.6 05:22:34 10° S 05:27:19 48° WSW 05:32:06 10° NW
CZ-4B R/B 3.0 05:22:37 10° NNE 05:27:57 79° WNW 05:33:13 10° SSW
USA 234 4.0 05:24:08 10° NE 05:30:14 43° NNW 05:35:18 15° W
Geosat 4.5 05:28:28 10° NNE 05:33:27 61° ESE 05:38:25 10° SSW
ASTRO F (AKARI) 4.4 05:30:04 10° S 05:33:42 79° WSW 05:37:09 10° NNW
PSLV R/B 4.3 05:30:47 10° N 05:34:18 38° WNW 05:36:16 22° SW
USA 129 3.1 05:35:23 23° NE 05:35:23 23° NE 05:36:16 10° N
Resurs 1-4 Rocket 3.6 05:33:49 10° NNW 05:37:33 20° WNW 05:39:46 16° W
PSLV R/B 3.9 05:33:37 10° NNE 05:38:00 68° ESE 05:42:22 10° S
SL-16 R/B 3.8 05:37:14 17° WSW 05:38:26 18° W 05:42:32 10° NW
COSMOS 2487 3.5 05:36:43 10° S 05:40:11 47° ESE 05:43:40 10° NNE
CZ-2C R/B 4.2 05:39:38 10° SSW 05:43:43 36° W 05:47:49 10° NNW
Cosmos 1943 Rocket 2.8 05:41:28 10° NW 05:46:29 33° WSW 05:51:27 10° SSW
Cosmos 1174 4.4 05:44:16 14° SW 05:48:56 60° WNW 05:53:17 10° NNE
Cosmos 1190 Rocket 4.0 05:47:01 10° SSW 05:52:13 83° WNW 05:57:26 10° NNE
ADEOS II 2.3 05:47:07 10° NNE 05:52:24 79° ESE 05:57:39 10° S
Thor Agena Rocket 3.7 05:48:34 10° S 05:53:34 53° W 05:58:40 10° NNW
Okean 2 Rocket 3.1 05:49:54 10° NNW 05:54:25 73° W 05:58:54 10° S
Cosmos 1408 3.4 05:51:54 10° NNW 05:55:14 31° W 05:58:34 10° SSW
Okean 1-7 3.0 05:51:18 10° SSW 05:55:35 70° W 05:59:55 10° N
Nadezhda 1 Rocket 4.2 05:51:28 10° SSW 05:57:31 52° WNW 06:03:43 10° N
Cosmos 1992 Rocket 4.3 05:56:17 10° NNW 06:01:12 42° WSW 06:06:06 10° S
Meteor 1-31 Rocket 3.6 05:58:12 10° NNE 06:01:56 52° E 06:05:39 10° S
SL-27 R/B 4.1 06:00:36 13° WSW 06:02:51 20° WNW 06:05:38 10° NNW
Cosmos 1825 3.3 05:59:48 10° NW 06:02:57 25° W 06:06:03 10° SW
Aureole 3 Rocket 4.0 05:56:27 10° SSW 06:03:26 55° W 06:08:26 10° N
USA 32 4.5 05:59:31 10° SSW 06:04:27 42° W 06:09:27 10° N
Centaur D-1A AC-31 3.3 05:58:26 11° WSW 06:04:56 22° SSW 06:08:13 10° SSE
ADEOS Rocket 3.6 05:58:11 10° N 06:05:56 77° WNW 06:13:37 10° SSW
Abrixas rocket 3.3 06:05:54 10° NW 06:09:09 46° NNE 06:12:23 10° E
Cosmos 2181 Rocket 4.2 06:02:50 10° S 06:09:16 87° E 06:15:42 10° N
Cosmos 1954 Rocket 4.4 06:06:35 10° S 06:11:42 68° ESE 06:16:53 10° NNE
CENTAUR R/B 3.3 06:06:32 10° WSW 06:12:23 40° NW 06:18:56 10° NNE
Cosmos 1782 Rocket 4.3 06:12:37 10° NNW 06:16:29 32° W 06:20:19 10° SSW
Cosmos 1656 Rocket 4.1 06:12:51 10° NW 06:17:49 37° WSW 06:22:45 10° S
ATLAS 5 CENTAUR R/B 3.7 06:16:03 10° W 06:19:41 19° NW 06:23:30 10° N
